Temperature
18 18 19 19 15 13 15 16 17 18 19 20 21 21 20 20 21 21 22 21 20 20 18 16 15 15 15 15 15 14 14 14 14 13 12 12 12 11 12 11 11 11 11 11 12 12 12 12 12
17 18 19 18 14 14 15 15 17 18 20 20 21 21 20 20 21 21 21 21 20 19 18 17 16 15 15 15 15 15 15 14 13 12 11 11 11 11 11 11 11 11 11 12 12 12 12 12 12
17 17 18 13 13 14 16 17 17 18 20 20 20 20 20 20 21 21 21 21 20 19 19 18 16 16 15 15 15 15 15 14 13 12 11 11 11 11 11 12 12 13 13 13 13 13 12 12 12
16 17 16 12 14 14 15 17 17 17 20 20 20 20 20 20 21 21 21 21 20 19 19 18 17 16 15 15 15 15 15 15 14 12 12 11 11 11 12 13 13 13 14 14 13 13 13 13 13
16 16 13 12 13 14 14 16 17 17 18 20 20 20 20 21 21 21 21 20 20 19 19 18 17 16 15 15 15 15 15 15 14 13 12 11 11 12 12 13 13 14 14 14 14 14 14 14 13
15 12 11 12 13 14 14 17 18 17 18 19 20 19 21 21 21 20 20 20 19 19 18 18 17 16 15 15 15 15 15 15 14 13 12 12 12 12 13 13 13 13 13 13 13 14 13 13 13
14 10 11 12 13 13 15 17 18 18 18 20 20 19 21 21 21 20 20 19 18 18 18 18 17 16 15 15 15 15 15 15 15 14 13 13 12 13 13 13 13 13 13 13 13 13 13 13 13
14 10 11 11 12 13 16 18 19 19 19 20 20 19 20 21 21 20 19 18 18 18 18 17 17 16 15 15 15 15 15 15 15 14 14 13 13 13 13 13 13 13 13 13 13 13 13 13 13
12 10 10 11 12 14 16 17 19 19 19 20 20 20 21 21 21 20 19 18 18 18 17 17 17 17 16 15 15 14 14 15 15 14 14 14 13 13 13 13 13 13 13 13 13 13 13 13 12
11 10 11 12 13 14 15 16 17 18 18 19 20 20 21 21 21 20 20 19 19 19 18 18 17 17 16 15 15 15 14 14 14 14 14 14 13 13 13 13 13 13 13 12 12 12 12 12 12
10 10 12 13 14 14 14 15 16 17 16 18 19 20 20 20 20 20 20 20 20 19 19 18 18 17 17 16 15 15 14 14 14 14 14 13 13 13 13 13 12 12 12 12 12 12 12 12 12
10 10 11 13 14 14 13 14 15 15 16 18 18 18 19 19 20 20 20 20 20 19 19 19 18 18 17 16 16 15 15 14 14 14 13 13 13 13 12 12 12 12 12 12 12 12 12 12 11
9 10 11 12 12 12 13 12 13 14 15 16 17 18 18 19 20 20 20 20 20 20 19 19 18 18 17 16 16 15 15 14 14 13 13 13 13 12 12 12 12 12 12 11 11 11 11 11 11
9 9 10 10 11 12 12 12 12 13 15 16 16 17 18 18 19 19 20 20 20 20 20 19 19 18 17 17 16 15 14 14 13 13 13 13 12 12 12 12 12 12 11 11 11 11 11 11 11
9 9 9 10 11 11 12 11 12 14 15 15 16 17 17 18 19 19 20 20 20 20 20 20 19 19 18 17 16 15 14 14 13 13 13 13 12 12 12 12 12 12 11 11 11 11 11 11 11
9 8 8 9 10 11 11 11 12 14 15 15 15 16 17 18 19 19 19 20 20 20 20 20 19 19 18 17 16 15 14 14 13 13 13 13 13 12 12 12 12 12 11 11 11 11 11 11 11
8 7 7 8 10 10 10 10 12 14 14 14 15 16 16 17 18 19 19 19 20 20 20 20 19 19 18 17 16 15 14 14 14 13 13 13 13 12 12 12 12 11 11 11 11 11 10 10 10
7 7 7 8 9 9 8 9 10 12 13 12 13 14 15 16 18 19 19 19 19 19 19 19 19 18 18 16 15 15 14 14 14 13 13 13 12 12 12 12 11 11 11 10 10 10 9 9 9
7 7 7 8 8 8 8 9 9 10 11 11 12 13 14 16 17 18 18 19 19 19 19 19 19 18 17 16 15 15 14 14 13 13 13 12 12 11 11 11 11 11 10 10 9 9 8 8 8
6 6 6 7 8 8 7 8 9 9 10 11 12 13 14 15 16 17 17 18 18 18 18 18 18 17 17 16 15 15 14 13 13 13 12 12 11 11 11 11 11 10 10 9 8 8 7 7 6
6 6 6 6 7 7 7 8 9 9 10 11 12 13 14 14 15 16 17 17 17 17 18 18 17 17 16 15 14 14 13 13 12 12 12 11 11 11 11 10 10 10 9 8 7 7 6 5 5
6 6 7 6 6 6 6 7 8 9 9 10 11 12 13 14 15 16 16 17 17 17 17 17 16 16 15 14 14 14 13 13 12 12 11 11 10 10 10 10 9 9 8 7 6 6 5 5 4
6 7 7 6 6 6 6 6 8 9 9 10 10 12 13 14 15 16 17 17 17 16 16 16 15 15 14 13 13 13 13 13 12 11 11 11 10 10 10 9 9 8 7 6 5 5 4 4 3
7 7 6 6 6 6 7 6 7 8 9 10 10 12 14 15 15 16 16 16 16 15 15 15 14 14 13 13 12 13 13 12 12 11 11 10 10 9 9 8 8 7 6 5 5 4 4 3 3
6 6 5 5 6 6 7 7 8 9 10 11 11 13 14 15 15 15 15 15 15 15 14 14 13 13 12 12 12 12 12 12 11 11 10 10 9 9 8 7 7 6 5 4 4 3 3 3 2
5 6 5 4 4 5 7 7 9 10 11 12 13 13 14 14 14 14 15 15 15 14 14 13 13 12 12 12 12 11 11 11 10 10 9 9 8 8 7 6 6 5 4 4 3 3 2 2 1
6 6 6 6 5 5 6 7 8 10 9 10 11 12 12 13 12 13 14 14 14 14 13 13 12 12 11 11 11 11 10 10 10 9 9 8 8 7 6 6 5 4 4 3 3 2 2 1 1
6 6 6 6 6 6 7 8 9 10 10 10 10 10 11 11 10 11 12 13 13 13 12 12 11 11 11 10 10 10 10 9 9 9 8 8 7 6 5 5 4 3 3 2 2 2 1 1 0
6 6 6 6 6 6 7 9 11 10 11 10 10 10 10 10 9 9 9 11 11 11 11 11 11 11 10 10 10 9 9 9 8 8 7 7 6 5 5 4 3 3 2 2 1 1 1 0 -0
7 7 6 6 7 6 7 9 11 10 9 9 9 9 9 9 8 7 7 9 10 10 10 10 10 10 10 9 9 9 9 8 8 7 7 6 5 5 4 3 3 2 2 1 1 1 0 -0 -1
Wind_Speed
14 10 3 4 6 4 3 6 4 5 4 2 3 3 4 4 4 3 0 9 7 10 15 18 19 18 17 15 13 11 9 8 8 7 7 7 6 5 5 4 3 3 4 5 6 7 7 8 8
7 4 5 5 5 0 6 6 5 5 4 5 1 2 1 2 1 1 3 8 9 12 14 16 19 19 17 15 13 11 10 9 8 8 8 7 6 5 4 4 3 3 4 4 5 6 6 7 6
3 5 5 4 5 7 6 5 5 6 7 3 0 1 3 2 2 4 5 10 10 10 13 16 20 19 17 15 13 11 10 9 9 8 8 8 7 6 5 4 3 3 3 3 4 4 4 5 4
4 5 5 3 8 8 6 5 3 8 7 3 0 1 2 1 2 3 8 11 12 9 12 16 20 19 17 16 14 12 11 10 9 9 8 7 6 6 5 4 3 3 2 2 2 2 2 3 3
4 4 1 4 9 6 6 6 4 5 6 4 1 2 2 2 3 7 10 12 13 10 10 14 19 18 17 16 14 12 11 11 10 9 8 7 6 5 4 4 3 2 1 0 1 2 2 3 4
4 4 4 8 10 6 5 4 3 5 5 5 3 3 4 1 5 7 9 10 11 10 9 13 18 18 17 16 14 13 12 11 10 10 9 7 6 5 4 4 3 2 2 2 2 3 4 5 6
5 5 6 7 7 8 6 5 5 6 6 6 5 5 4 1 6 8 8 8 8 7 7 9 13 15 16 16 15 13 12 11 10 10 8 6 4 3 3 3 3 3 3 4 5 5 6 7 8
5 5 5 6 7 8 3 3 4 6 8 4 6 7 6 4 8 8 6 6 6 7 8 6 9 11 13 14 15 14 12 11 10 9 7 5 4 2 2 2 4 5 6 6 6 7 7 8 8
4 3 8 8 8 6 3 3 3 2 3 2 4 5 3 6 10 9 5 5 6 8 8 7 7 8 10 11 13 13 12 11 9 8 7 5 2 1 2 4 5 6 7 7 7 7 8 8 7
5 7 8 6 6 3 2 2 4 5 4 3 3 3 1 7 10 10 9 10 12 12 11 9 9 8 9 10 10 10 10 9 8 6 5 4 2 1 3 4 5 5 5 5 6 7 8 8 7
6 6 3 4 3 3 4 5 3 3 5 5 5 5 2 6 8 9 10 10 12 11 11 12 11 9 8 6 7 7 8 7 7 7 6 4 2 0 2 3 4 5 5 5 6 7 7 7 7
3 4 3 3 3 4 5 5 6 6 9 6 6 5 3 6 10 11 11 10 8 8 11 12 12 11 10 8 6 7 6 6 6 7 7 5 3 2 2 2 3 4 4 5 5 5 7 8 9
4 4 4 5 7 7 7 8 7 9 10 10 9 8 8 8 10 10 9 8 8 10 11 12 12 13 11 9 6 6 6 6 7 7 7 7 4 3 3 3 4 5 6 6 5 5 6 6 7
3 3 5 5 6 5 8 12 8 11 9 9 9 10 11 11 12 9 9 10 10 11 12 11 14 14 13 11 8 6 6 6 7 6 8 8 7 5 4 4 5 6 7 8 7 6 5 4 4
2 4 7 6 7 6 5 15 15 13 11 13 12 12 13 13 12 12 12 10 11 10 9 11 13 13 14 12 10 6 7 7 6 6 8 9 9 9 7 5 5 6 8 9 8 6 6 5 6
1 3 5 5 5 7 8 19 9 8 12 14 13 13 14 14 13 13 12 11 10 8 8 10 11 13 13 11 9 6 7 7 6 8 9 11 11 11 9 6 5 8 8 7 5 5 5 6 6
2 4 5 5 4 4 9 11 5 8 10 12 12 12 13 13 13 13 11 10 9 9 8 9 10 12 12 11 9 8 7 7 8 10 10 12 13 13 11 7 6 9 7 5 5 6 5 5 7
6 5 4 5 4 5 10 14 11 10 10 11 11 11 12 14 15 12 9 9 8 7 7 8 9 10 12 11 10 9 10 8 8 9 11 13 13 14 12 8 8 8 6 6 5 6 6 5 6
1 4 7 6 6 7 13 20 15 12 13 14 13 13 13 14 12 8 7 7 6 6 7 9 11 12 13 12 11 10 8 8 8 8 12 14 14 13 11 8 7 7 8 7 6 4 6 6 6
7 11 13 10 7 8 14 25 19 15 16 18 18 17 16 13 10 8 7 7 7 8 8 9 11 12 12 10 7 6 8 8 8 7 11 14 14 12 11 9 7 6 7 8 8 6 3 5 6
10 11 10 9 8 8 13 19 17 13 18 21 20 19 16 16 14 11 9 9 8 8 10 10 11 11 11 12 13 13 9 7 6 8 7 9 13 13 13 11 8 6 7 6 6 6 5 4 4
10 8 10 10 8 7 5 10 9 9 13 18 18 17 17 16 15 12 11 10 10 9 8 10 11 12 13 15 16 18 12 9 6 7 8 9 12 12 14 13 11 7 6 6 6 5 4 3 3
7 5 7 8 9 12 9 10 14 7 13 14 15 16 17 16 16 15 14 13 10 9 10 11 12 13 12 12 15 15 13 10 10 10 11 10 8 10 12 12 10 7 5 6 6 5 4 3 2
5 3 6 7 7 13 13 12 14 10 13 12 14 15 17 17 16 13 11 11 10 10 10 12 14 12 11 12 13 16 19 18 15 12 10 8 6 6 9 11 9 7 5 5 4 4 4 2 2
7 4 3 4 8 10 8 11 16 14 12 15 16 16 16 15 14 14 16 16 15 15 14 13 15 13 12 12 13 15 17 17 16 13 11 9 6 5 6 6 5 5 5 5 4 3 3 2 1
10 10 8 6 7 6 5 13 14 15 14 14 17 15 13 13 14 17 19 19 18 17 16 15 15 14 13 13 13 13 14 11 10 10 9 8 7 6 5 6 6 6 5 4 4 2 2 1 2
7 11 9 7 8 10 10 10 12 11 13 16 17 15 14 13 15 17 18 18 18 18 17 17 17 15 14 14 15 13 12 12 12 10 9 8 7 6 6 6 5 4 4 4 3 2 3 3 3
8 5 5 8 6 9 10 12 12 14 15 15 15 14 12 12 14 15 16 16 15 15 15 15 16 16 15 15 13 12 12 12 12 11 10 9 7 6 6 6 4 4 3 3 3 3 3 4 4
11 8 9 7 7 6 9 10 4 11 13 13 13 11 12 15 17 17 15 15 15 16 16 16 16 16 15 14 14 14 12 12 11 10 9 8 7 7 6 5 4 3 3 3 3 4 4 5 6
12 13 12 9 9 7 9 14 2 7 11 8 6 8 12 15 16 16 16 17 17 17 16 16 15 15 14 14 14 14 12 12 11 10 9 8 7 6 5 4 4 3 3 4 4 5 6 6 7
Wind_Direction
332 337 41 51 49 47 259 254 250 288 279 280 264 212 189 180 179 196 79 156 145 152 165 163 157 156 155 153 149 148 149 151 147 142 143 136 130 120 107 97 88 77 54 43 40 44 54 72 84
331 356 47 57 92 243 265 249 250 251 281 306 280 135 169 260 269 157 154 167 152 155 160 159 159 159 158 156 155 154 156 156 155 150 146 140 137 130 115 100 83 75 64 52 46 44 51 56 63
5 46 75 82 154 192 226 227 228 281 290 285 157 145 191 223 224 198 184 156 147 154 157 161 162 163 162 161 161 161 162 163 161 157 151 149 145 138 124 103 87 82 75 63 55 49 49 44 39
63 48 61 114 225 220 221 236 272 319 331 332 250 189 242 248 247 188 142 148 148 154 157 165 165 166 165 166 167 169 170 170 168 164 161 161 158 154 139 127 117 113 102 80 58 39 22 7 352
63 83 123 235 240 238 240 264 286 303 301 307 275 206 261 6 64 121 141 150 156 158 161 169 169 170 170 171 172 174 175 176 174 174 174 175 173 170 161 160 156 155 151 79 10 349 338 325 318
70 92 166 230 245 254 249 236 272 274 269 279 205 193 265 83 126 149 151 155 162 163 163 173 175 175 175 176 177 179 180 181 181 184 185 187 186 182 181 189 195 205 235 287 325 327 321 316 312
129 140 202 221 247 257 249 206 215 240 257 250 189 175 276 250 161 157 150 148 157 162 163 173 180 179 178 180 181 182 183 186 187 191 194 196 192 196 200 215 226 251 280 304 316 317 315 314 314
143 146 207 217 227 253 241 216 228 216 244 237 161 172 232 220 140 136 132 140 161 170 175 173 178 177 179 182 184 184 185 188 191 193 189 180 173 182 240 264 265 277 292 305 314 317 319 322 324
108 150 217 209 200 242 239 237 283 281 251 256 211 215 243 130 122 123 134 163 181 190 190 183 179 177 176 179 185 185 187 190 191 192 183 169 163 219 311 311 300 295 300 310 320 331 342 350 351
153 212 227 197 195 225 305 291 306 339 330 302 287 276 102 135 144 157 174 189 196 200 198 194 191 183 175 182 180 180 183 186 184 179 173 167 174 269 321 329 335 330 332 343 358 12 18 19 11
188 226 228 229 244 276 299 295 290 296 280 249 265 276 187 173 175 184 193 197 203 201 198 198 197 189 182 178 171 175 177 178 181 181 178 171 159 78 8 3 5 20 31 36 34 36 33 31 25
217 247 255 282 320 304 285 288 285 233 238 269 289 299 260 210 202 205 207 211 202 197 200 198 196 194 191 183 174 174 174 175 181 187 183 165 143 121 78 55 46 51 55 54 48 47 41 38 33
240 265 283 293 299 282 279 264 264 256 260 281 291 293 270 250 238 232 227 223 207 208 206 198 194 196 193 186 178 177 178 180 186 182 179 167 147 133 112 89 75 66 66 61 53 50 45 35 26
273 296 302 290 286 281 267 269 252 253 252 265 268 267 260 249 245 247 243 235 221 217 211 198 195 194 190 189 184 177 174 171 167 167 169 162 146 133 118 97 77 65 65 63 60 55 44 30 15
304 304 301 259 241 242 254 268 241 245 245 253 253 252 255 250 242 237 234 231 227 221 209 197 196 189 187 186 179 167 162 158 155 153 150 144 137 128 115 98 79 66 69 68 59 51 43 28 12
306 270 274 275 226 219 204 259 257 228 229 242 243 242 246 250 241 236 237 237 234 219 206 198 191 184 182 176 163 152 148 143 137 132 129 125 120 116 105 95 84 75 69 64 61 37 35 21 5
244 250 249 285 263 258 223 262 271 236 233 246 247 245 244 248 248 240 235 231 226 211 196 185 179 174 169 155 141 128 122 117 116 114 112 111 108 107 101 93 86 79 67 51 55 46 37 19 356
222 227 240 249 306 320 277 271 281 292 275 261 257 251 248 247 249 246 236 224 211 193 178 167 157 153 144 134 123 114 104 100 99 102 105 104 103 103 100 91 81 76 68 52 47 52 40 25 349
241 255 265 268 304 308 277 277 273 267 268 264 260 255 251 250 253 248 230 204 183 172 162 156 148 148 146 144 137 128 119 111 99 95 100 100 100 99 98 94 80 72 72 60 45 45 34 18 360
249 266 272 280 267 273 280 280 274 252 254 252 251 251 250 249 249 232 208 189 185 175 163 152 152 152 151 145 131 120 119 107 99 96 93 98 100 99 97 93 88 78 78 62 48 45 45 21 22
238 244 256 265 302 275 286 285 262 238 233 241 241 241 240 237 236 226 203 195 184 179 169 158 151 145 137 131 122 117 109 106 104 100 92 90 97 97 97 93 89 78 77 72 60 52 61 32 14
251 228 237 254 265 272 235 286 273 228 240 241 240 234 233 231 225 215 196 189 186 179 160 147 143 141 141 140 142 143 142 136 127 123 112 98 95 95 92 90 86 80 76 73 63 62 61 65 27
225 225 229 240 247 264 236 261 278 213 246 246 240 234 230 225 217 207 194 186 172 157 150 143 138 139 143 144 146 137 127 122 124 118 111 101 90 87 87 87 84 79 76 76 68 63 60 69 74
210 285 278 248 247 261 229 222 271 235 233 239 237 231 227 220 211 197 175 156 148 143 141 142 140 139 139 140 141 138 135 135 133 128 119 109 97 82 81 84 81 79 76 72 68 66 62 59 58
180 206 266 251 230 249 187 210 249 245 223 227 236 236 226 214 195 176 163 160 157 153 150 147 143 139 136 134 133 137 137 137 137 133 128 121 107 93 82 83 79 75 75 74 64 54 37 37 22
190 191 210 230 239 272 224 233 251 249 234 233 237 236 225 205 186 176 171 165 162 157 153 149 145 139 135 131 127 127 126 124 124 122 121 114 111 107 99 90 83 76 69 61 48 34 356 356 312
188 210 218 252 264 270 255 259 277 256 248 241 239 234 220 196 181 174 167 163 159 156 154 150 144 137 133 130 126 121 118 119 118 113 107 106 107 106 96 90 81 68 56 42 26 356 328 314 283
209 186 188 221 252 259 262 259 262 279 265 249 237 227 208 181 170 164 161 157 153 148 141 139 139 135 131 128 127 123 117 116 116 113 108 105 100 98 98 87 75 56 37 18 1 328 313 305 288
199 213 218 229 236 255 280 270 246 289 287 266 246 216 183 169 164 159 152 145 138 136 137 135 133 130 128 124 121 119 116 114 110 108 107 107 103 100 95 87 71 46 22 358 343 320 308 302 295
206 214 213 235 244 241 267 275 266 305 305 282 241 182 162 156 150 146 142 138 138 138 137 135 134 130 127 124 120 118 117 113 109 108 107 107 103 97 94 85 65 34 5 340 326 313 310 299 296
Height
1506 1506 1506 1507 1510 1522 1520 1511 1504 1501 1498 1496 1495 1494 1493 1494 1497 1500 1496 1495 1496 1497 1498 1501 1503 1505 1507 1509 1510 1510 1511 1510 1510 1511 1512 1513 1513 1514 1514 1514 1514 1515 1515 1516 1517 1518 1519 1520 1521
1505 1506 1507 1506 1517 1526 1521 1508 1504 1499 1496 1495 1493 1493 1492 1492 1493 1493 1494 1495 1496 1497 1498 1500 1503 1505 1507 1508 1510 1510 1510 1510 1510 1511 1512 1513 1514 1514 1515 1515 1514 1514 1515 1515 1516 1517 1518 1519 1520
1504 1505 1507 1509 1518 1521 1512 1502 1499 1496 1494 1494 1493 1492 1492 1492 1492 1493 1494 1495 1496 1497 1498 1500 1503 1505 1507 1509 1510 1510 1510 1510 1511 1512 1513 1514 1514 1515 1515 1515 1515 1515 1515 1515 1516 1517 1518 1519 1520
1503 1505 1506 1513 1514 1509 1503 1498 1497 1495 1493 1493 1493 1492 1492 1493 1493 1493 1494 1495 1496 1497 1498 1501 1503 1505 1507 1509 1510 1511 1511 1511 1512 1513 1513 1514 1515 1516 1516 1516 1516 1516 1516 1516 1517 1518 1519 1519 1520
1502 1503 1509 1514 1509 1503 1499 1497 1496 1496 1495 1493 1493 1492 1491 1492 1492 1493 1494 1495 1496 1497 1499 1501 1503 1505 1507 1509 1510 1511 1511 1512 1512 1513 1514 1515 1516 1517 1517 1517 1517 1517 1517 1518 1518 1518 1519 1519 1519
1501 1502 1513 1513 1505 1500 1497 1496 1496 1495 1494 1493 1492 1491 1490 1491 1492 1493 1495 1496 1497 1498 1499 1501 1503 1505 1507 1509 1510 1511 1512 1512 1513 1514 1515 1516 1517 1518 1518 1519 1519 1519 1519 1519 1519 1519 1520 1520 1519
1499 1504 1508 1507 1504 1500 1495 1494 1495 1494 1492 1492 1491 1491 1490 1491 1491 1492 1494 1496 1497 1498 1500 1501 1503 1505 1507 1509 1511 1512 1512 1513 1514 1515 1516 1517 1518 1519 1519 1520 1520 1520 1520 1520 1520 1520 1520 1520 1520
1496 1501 1503 1504 1502 1497 1492 1492 1492 1491 1490 1490 1491 1490 1489 1490 1490 1492 1493 1495 1496 1498 1499 1501 1503 1504 1506 1508 1510 1512 1513 1513 1514 1515 1516 1517 1518 1519 1520 1520 1520 1520 1520 1520 1520 1520 1520 1520 1519
1494 1501 1501 1499 1498 1494 1490 1490 1490 1490 1489 1489 1489 1489 1489 1489 1489 1490 1492 1493 1495 1496 1498 1500 1502 1503 1505 1507 1509 1511 1512 1513 1514 1515 1516 1517 1518 1519 1520 1520 1520 1520 1520 1520 1520 1520 1520 1519 1519
1493 1496 1492 1491 1490 1490 1489 1489 1489 1489 1488 1488 1488 1488 1487 1488 1488 1489 1490 1491 1493 1494 1497 1498 1500 1502 1504 1506 1508 1510 1511 1512 1513 1515 1516 1517 1518 1519 1520 1520 1520 1520 1520 1520 1520 1519 1519 1518 1518
1490 1490 1488 1487 1488 1488 1488 1488 1488 1489 1488 1488 1488 1487 1486 1486 1487 1488 1489 1490 1491 1493 1495 1497 1499 1501 1503 1505 1507 1509 1510 1511 1513 1514 1515 1516 1518 1519 1519 1520 1520 1520 1520 1519 1519 1518 1517 1517 1516
1489 1487 1487 1486 1486 1487 1487 1486 1486 1486 1486 1486 1487 1486 1485 1485 1485 1486 1487 1488 1490 1491 1493 1495 1497 1499 1501 1503 1505 1507 1509 1510 1512 1513 1515 1516 1517 1518 1519 1519 1519 1519 1519 1518 1517 1517 1515 1514 1513
1487 1486 1485 1485 1485 1485 1485 1484 1483 1480 1482 1483 1484 1484 1484 1484 1484 1485 1486 1487 1488 1489 1491 1493 1495 1496 1499 1501 1503 1505 1507 1509 1511 1512 1514 1515 1516 1517 1518 1518 1518 1518 1517 1516 1515 1514 1513 1512 1511
1486 1485 1484 1483 1483 1482 1482 1479 1479 1473 1477 1478 1479 1480 1481 1482 1482 1483 1483 1484 1485 1486 1488 1489 1491 1493 1496 1498 1501 1504 1506 1508 1510 1511 1513 1514 1515 1516 1517 1517 1517 1516 1515 1514 1513 1512 1510 1509 1508
1485 1485 1484 1481 1480 1479 1480 1473 1469 1469 1473 1472 1473 1474 1475 1476 1478 1479 1480 1481 1482 1483 1484 1485 1487 1490 1492 1495 1498 1501 1504 1506 1508 1510 1511 1513 1514 1515 1515 1515 1515 1514 1513 1512 1511 1509 1508 1506 1505
1485 1485 1486 1479 1476 1475 1480 1467 1464 1465 1465 1464 1465 1467 1469 1470 1471 1473 1475 1476 1477 1478 1479 1481 1483 1485 1487 1491 1494 1498 1501 1503 1505 1507 1509 1511 1512 1513 1513 1513 1513 1512 1511 1509 1508 1506 1505 1503 1501
1486 1488 1486 1482 1475 1474 1474 1465 1460 1459 1460 1459 1460 1460 1461 1462 1463 1466 1468 1470 1472 1473 1474 1476 1478 1480 1483 1486 1490 1494 1497 1500 1502 1505 1507 1508 1509 1510 1511 1511 1510 1510 1509 1507 1505 1503 1501 1499 1497
1486 1487 1485 1482 1476 1475 1472 1464 1460 1457 1457 1455 1454 1453 1453 1454 1455 1459 1462 1464 1465 1467 1468 1471 1473 1475 1477 1481 1484 1488 1492 1496 1499 1501 1504 1505 1507 1508 1509 1509 1508 1508 1506 1505 1503 1500 1498 1496 1494
1484 1484 1483 1480 1477 1477 1469 1460 1456 1454 1452 1449 1448 1446 1446 1446 1449 1452 1455 1457 1459 1461 1463 1465 1468 1470 1472 1475 1478 1482 1487 1492 1495 1498 1501 1503 1505 1506 1507 1507 1507 1506 1504 1502 1500 1498 1496 1493 1491
1484 1484 1482 1479 1477 1473 1466 1453 1447 1446 1443 1441 1440 1439 1439 1440 1442 1445 1448 1450 1452 1455 1457 1460 1463 1465 1467 1471 1474 1479 1483 1488 1492 1495 1498 1501 1503 1504 1505 1505 1504 1503 1502 1500 1498 1496 1493 1491 1488
1481 1482 1480 1481 1477 1472 1469 1446 1435 1431 1430 1428 1427 1428 1430 1432 1435 1438 1441 1444 1447 1450 1453 1455 1458 1461 1464 1467 1471 1475 1480 1485 1489 1493 1496 1498 1501 1503 1503 1503 1502 1501 1499 1497 1495 1493 1492 1490 1488
1477 1475 1475 1476 1478 1473 1469 1454 1426 1425 1421 1418 1417 1418 1419 1423 1427 1430 1434 1438 1442 1445 1449 1452 1455 1458 1461 1464 1468 1472 1477 1482 1486 1490 1494 1497 1499 1501 1501 1501 1500 1499 1497 1495 1493 1492 1490 1488 1486
1473 1471 1472 1473 1474 1471 1464 1463 1424 1419 1415 1410 1409 1409 1410 1413 1417 1421 1426 1432 1437 1441 1444 1448 1451 1454 1458 1463 1467 1472 1476 1480 1484 1488 1492 1495 1497 1498 1499 1499 1498 1496 1495 1493 1492 1490 1488 1486 1484
1468 1471 1471 1469 1470 1462 1449 1457 1424 1410 1404 1400 1399 1399 1399 1402 1407 1412 1418 1425 1430 1435 1440 1444 1448 1452 1456 1461 1466 1470 1474 1478 1482 1486 1490 1493 1495 1496 1497 1496 1495 1494 1493 1492 1490 1489 1487 1484 1482
1468 1472 1473 1470 1461 1449 1439 1439 1411 1392 1391 1390 1389 1389 1389 1392 1397 1402 1408 1416 1423 1429 1435 1440 1444 1449 1454 1460 1465 1470 1474 1478 1482 1485 1489 1492 1493 1494 1494 1494 1493 1492 1491 1490 1488 1487 1484 1482 1479
1462 1465 1470 1473 1466 1450 1435 1422 1395 1383 1382 1380 1380 1380 1382 1385 1388 1393 1400 1408 1416 1423 1430 1436 1441 1447 1452 1458 1464 1469 1473 1477 1481 1485 1488 1490 1492 1492 1492 1492 1491 1490 1489 1487 1486 1484 1481 1479 1476
1457 1458 1456 1460 1453 1446 1428 1408 1390 1377 1376 1373 1372 1372 1373 1377 1381 1386 1393 1402 1410 1418 1425 1432 1438 1445 1451 1457 1462 1467 1472 1477 1480 1484 1486 1488 1490 1490 1490 1489 1489 1488 1486 1485 1483 1481 1478 1476 1473
1449 1449 1453 1452 1444 1434 1415 1402 1385 1373 1369 1366 1364 1364 1366 1371 1377 1382 1389 1397 1406 1414 1423 1431 1438 1444 1450 1456 1461 1466 1471 1476 1479 1482 1485 1487 1487 1488 1488 1487 1486 1485 1484 1482 1480 1477 1475 1472 1468
1445 1446 1444 1441 1437 1431 1415 1389 1369 1369 1363 1359 1356 1356 1360 1366 1372 1379 1386 1394 1403 1412 1421 1429 1436 1442 1449 1455 1461 1466 1470 1474 1478 1481 1483 1485 1485 1485 1485 1485 1484 1483 1481 1479 1476 1474 1471 1467 1464
1432 1432 1435 1434 1427 1422 1413 1382 1364 1365 1359 1354 1352 1353 1357 1363 1370 1377 1384 1392 1401 1411 1419 1427 1434 1441 1448 1454 1460 1465 1469 1473 1477 1479 1481 1482 1483 1483 1483 1482 1481 1480 1478 1475 1472 1469 1466 1462 1458